Track STARLINK-2034 now! 10-day predictions STARLINK-2034 is classified as:
1 47352U 21005D 21111.58334491 .00029044 00000-0 19617-2 0 9997 2 47352 53.0531 146.2876 0001136 64.0134 240.5549 15.06381038 1806